Window Rock, AZ

11:13 AM MDT on May 25, 2018 (GMT -0600)
Window Rock

Weather History for KRQE - April, 2014

Change the Weather History Date:

Tuesday, April 29, 2014

  Actual Average Record
Temperature  
Mean Temperature 40 °F -  
Max Temperature 55 °F 67 °F 80 °F (1938)
Min Temperature 27 °F 34 °F 16 °F (1970)
Degree Days  
Heating Degree Days 24    
Moisture  
Dew Point 7 °F    
Average Humidity 26    
Maximum Humidity 45    
Minimum Humidity 14    
Precipitation  
Precipitation 0.00 in - - ()
Sea Level Pressure  
Sea Level Pressure 30.08 in    
Wind  
Wind Speed 9 mph (North)    
Max Wind Speed 20 mph    
Max Gust Speed 30 mph    
Visibility 10 miles    
Events      
Averages and records for this station are not official NWS values.
T = Trace of Precipitation, MM = Missing Value Source: NWS Daily Summary

Daily Weather History Graph

Daily Weather History Graph

Search for Another Location

Airport or City:

Astronomy

Apr. 29, 2014 Rise Set
Actual Time 6:26 AM MDT 8:01 PM MDT
Civil Twilight 5:59 AM MDT 8:28 PM MDT
Nautical Twilight 5:26 AM MDT 9:01 PM MDT
Astronomical Twilight 4:52 AM MDT 9:35 PM MDT
Moon 6:46 AM MDT (4/29) 8:44 PM MDT (4/29)
Length of Visible Light 14h 29m
Length of Day
13h 34m
New Moon, 0% of the Moon is Illuminated
Apr 29
New Moon
May 6
First Quarter
May 14
Full
May 21
Last Quarter
May 28
New

Hourly Weather History & Observations

Time (MDT) Temp. Windchill Dew Point Humidity Pressure Visibility Wind Dir Wind Speed Gust Speed Precip Events Conditions
12:53 AM 37.9 °F 30.9 °F 6.1 °F 27% 30.03 in 10.0 mi NNW 10.4 mph - N/A   Clear
1:53 AM 35.1 °F 32.2 °F 8.1 °F 33% 30.07 in 10.0 mi NNE 3.5 mph - N/A   Clear
2:53 AM 33.1 °F 26.1 °F 8.1 °F 35% 30.06 in 10.0 mi NNW 8.1 mph - N/A   Clear
3:53 AM 32.0 °F - 7.0 °F 35% 30.08 in 10.0 mi Calm Calm - N/A   Clear
4:53 AM 28.9 °F 25.2 °F 8.1 °F 41% 30.09 in 10.0 mi North 3.5 mph - N/A   Clear
5:53 AM 28.9 °F 23.9 °F 8.1 °F 41% 30.09 in 10.0 mi NE 4.6 mph - N/A   Clear
6:53 AM 27.0 °F - 8.1 °F 45% 30.12 in 10.0 mi Calm Calm - N/A   Clear
7:53 AM 35.1 °F 26.9 °F 10.0 °F 35% 30.12 in 10.0 mi North 11.5 mph - N/A   Clear
8:53 AM 39.9 °F 30.5 °F 7.0 °F 26% 30.11 in 10.0 mi NNW 19.6 mph 24.2 mph N/A   Clear
9:53 AM 44.1 °F 36.5 °F 6.1 °F 21% 30.09 in 10.0 mi North 17.3 mph 24.2 mph N/A   Clear
10:53 AM 46.9 °F - 7.0 °F 20% 30.09 in 10.0 mi North 11.5 mph 19.6 mph N/A   Clear
12:53 PM 51.1 °F - 7.0 °F 17% 30.05 in 10.0 mi WNW 5.8 mph 23.0 mph N/A   Clear
1:53 PM 53.1 °F - 5.0 °F 14% 30.05 in 10.0 mi NNW 13.8 mph 21.9 mph N/A   Clear
2:53 PM 54.0 °F - 5.0 °F 14% 30.05 in 10.0 mi North 18.4 mph 23.0 mph N/A   Clear
3:53 PM 54.0 °F - 7.0 °F 15% 30.05 in 10.0 mi NNW 19.6 mph 28.8 mph N/A   Clear
4:53 PM 53.1 °F - 7.0 °F 16% 30.06 in 10.0 mi NNW 13.8 mph 23.0 mph N/A   Clear
5:53 PM 51.1 °F - 6.1 °F 16% 30.07 in 10.0 mi North 15.0 mph 29.9 mph N/A   Clear
6:53 PM 50.0 °F - 3.9 °F 15% 30.09 in 10.0 mi NNW 19.6 mph 26.5 mph N/A   Clear
7:53 PM 46.0 °F 40.2 °F 7.0 °F 20% 30.09 in 10.0 mi North 12.7 mph 21.9 mph N/A   Mostly Cloudy
8:53 PM 43.0 °F 37.7 °F 6.1 °F 22% 30.10 in 10.0 mi North 9.2 mph - N/A   Partly Cloudy
9:53 PM 39.9 °F 36.7 °F 8.1 °F 27% 30.11 in 10.0 mi NNW 4.6 mph - N/A   Clear
10:53 PM 37.9 °F 32.7 °F 9.0 °F 30% 30.09 in 10.0 mi North 6.9 mph - N/A   Partly Cloudy
11:53 PM 37.0 °F 31.0 °F 10.9 °F 34% 30.08 in 10.0 mi NNE 8.1 mph - N/A   Clear